When you browse on this site, cookies collect data to enhance your experience and personalize the content and advertising you see.
Visit our Privacy Policy to learn more. By continuing to use the site, you agree to this use of cookies and data.
  • Em Portugal
  • Lista de países
  • Para 7 dias
  • Temperatura da água
  • Mapa do tempo
  • Widgets de tempo
  • user-avatar
    Iniciar Sessão

    Previsão horária em Vershina Toi

    Hoje, 7 Junho, Domingo

    Tempo Temperatura Precipitação Vento Pressão Humidade
    00:00 +4°C° 0 mm 2 m/s 681 mmHg 97%
    01:00 +4°C° 0 mm 2 m/s 681 mmHg 97%
    02:00 +4°C° 0 mm 2 m/s 681 mmHg 98%
    03:00 +4°C° 0 mm 2 m/s 681 mmHg 98%
    04:00 +4°C° 0.2 mm 2 m/s 681 mmHg 97%
    05:00 +5°C° 0.2 mm 2 m/s 682 mmHg 97%
    06:00 +5°C° 0.2 mm 2 m/s 682 mmHg 96%
    07:00 +5°C° 0.3 mm 3 m/s 682 mmHg 95%
    08:00 +5°C° 0.3 mm 4 m/s 682 mmHg 94%
    09:00 +5°C° 0.3 mm 4 m/s 681 mmHg 93%
    10:00 +5°C° 0.1 mm 4 m/s 681 mmHg 90%
    11:00 +6°C° 0.1 mm 4 m/s 682 mmHg 87%
    12:00 +7°C° 0.1 mm 4 m/s 682 mmHg 85%
    13:00 +7°C° 0.2 mm 4 m/s 681 mmHg 85%
    14:00 +8°C° 0.2 mm 3 m/s 681 mmHg 85%
    15:00 +9°C° 0.2 mm 3 m/s 681 mmHg 85%
    16:00 +9°C° 0.5 mm 3 m/s 681 mmHg 88%
    17:00 +8°C° 0.5 mm 4 m/s 681 mmHg 90%
    18:00 +8°C° 0.5 mm 4 m/s 681 mmHg 93%
    19:00 +8°C° 0.7 mm 3 m/s 681 mmHg 94%
    20:00 +7°C° 0.7 mm 3 m/s 680 mmHg 95%
    21:00 +5°C° 0.7 mm 3 m/s 680 mmHg 96%
    22:00 +6°C° 0.3 mm 2 m/s 680 mmHg 97%
    23:00 +5°C° 0.3 mm 2 m/s 680 mmHg 97%

    Amanhã, 8 Junho, Segunda-feira

    Tempo Temperatura Precipitação Vento Pressão Humidade
    00:00 +6°C° 0.3 mm 1 m/s 680 mmHg 98%
    01:00 +5°C° 0.1 mm 1 m/s 680 mmHg 98%
    02:00 +5°C° 0.1 mm 1 m/s 680 mmHg 98%
    03:00 +5°C° 0.1 mm 1 m/s 680 mmHg 98%
    04:00 +5°C° 0 mm 1 m/s 681 mmHg 97%
    05:00 +6°C° 0 mm 1 m/s 681 mmHg 96%
    06:00 +7°C° 0 mm 1 m/s 681 mmHg 95%
    07:00 +7°C° 0 mm 2 m/s 681 mmHg 86%
    08:00 +8°C° 0 mm 2 m/s 682 mmHg 77%
    09:00 +9°C° 0 mm 2 m/s 682 mmHg 68%
    10:00 +11°C° 0 mm 3 m/s 682 mmHg 60%
    11:00 +12°C° 0 mm 3 m/s 682 mmHg 53%
    12:00 +13°C° 0 mm 4 m/s 682 mmHg 45%
    13:00 +13°C° 0 mm 4 m/s 682 mmHg 45%
    14:00 +14°C° 0 mm 4 m/s 682 mmHg 44%
    15:00 +14°C° 0 mm 4 m/s 681 mmHg 44%
    16:00 +13°C° 0 mm 4 m/s 681 mmHg 48%
    17:00 +13°C° 0 mm 4 m/s 681 mmHg 52%
    18:00 +12°C° 0 mm 4 m/s 680 mmHg 56%
    19:00 +11°C° 0 mm 3 m/s 680 mmHg 61%
    20:00 +9°C° 0 mm 3 m/s 679 mmHg 67%
    21:00 +8°C° 0 mm 2 m/s 679 mmHg 73%
    22:00 +8°C° 0 mm 2 m/s 678 mmHg 75%
    23:00 +7°C° 0 mm 2 m/s 678 mmHg 78%

    Depois de amanhã, 9 Junho, Terça-feira

    Tempo Temperatura Precipitação Vento Pressão Humidade
    00:00 +7°C° 0 mm 3 m/s 677 mmHg 81%
    01:00 +7°C° 0.8 mm 3 m/s 676 mmHg 86%
    02:00 +7°C° 0.8 mm 3 m/s 675 mmHg 91%
    03:00 +6°C° 0.8 mm 4 m/s 675 mmHg 96%
    04:00 +7°C° 3.3 mm 4 m/s 675 mmHg 96%
    05:00 +7°C° 3.3 mm 4 m/s 675 mmHg 97%
    06:00 +7°C° 3.3 mm 5 m/s 675 mmHg 97%
    07:00 +7°C° 1.1 mm 4 m/s 675 mmHg 97%
    08:00 +8°C° 1.1 mm 4 m/s 675 mmHg 96%
    09:00 +8°C° 1.1 mm 4 m/s 676 mmHg 95%
    10:00 +10°C° 0.4 mm 3 m/s 677 mmHg 90%
    11:00 +11°C° 0.4 mm 3 m/s 677 mmHg 85%
    12:00 +12°C° 0.4 mm 3 m/s 678 mmHg 80%
    13:00 +12°C° 0.6 mm 3 m/s 678 mmHg 82%
    14:00 +12°C° 0.6 mm 2 m/s 678 mmHg 84%
    15:00 +11°C° 0.6 mm 1 m/s 678 mmHg 85%
    16:00 +11°C° 0.5 mm 1 m/s 678 mmHg 87%
    17:00 +11°C° 0.5 mm 1 m/s 679 mmHg 89%
    18:00 +10°C° 0.5 mm 1 m/s 679 mmHg 90%
    19:00 +9°C° 0.1 mm 1 m/s 679 mmHg 91%
    20:00 +9°C° 0.1 mm 1 m/s 679 mmHg 92%
    21:00 +8°C° 0.1 mm 1 m/s 679 mmHg 93%
    22:00 +7°C° 0 mm 1 m/s 680 mmHg 94%
    23:00 +7°C° 0 mm 1 m/s 680 mmHg 94%

    10 Junho, Quarta-feira

    Tempo Temperatura Precipitação Vento Pressão Humidade
    00:00 +6°C° 0 mm 1 m/s 680 mmHg 95%
    01:00 +5°C° 0 mm 1 m/s 680 mmHg 95%
    02:00 +5°C° 0 mm 1 m/s 680 mmHg 95%
    03:00 +5°C° 0 mm 1 m/s 680 mmHg 95%
    04:00 +6°C° 0 mm 1 m/s 681 mmHg 93%
    05:00 +7°C° 0 mm 1 m/s 681 mmHg 91%
    06:00 +8°C° 0 mm 1 m/s 682 mmHg 90%
    07:00 +10°C° 0 mm 1 m/s 682 mmHg 78%
    08:00 +12°C° 0 mm 1 m/s 683 mmHg 67%
    09:00 +14°C° 0 mm 1 m/s 684 mmHg 56%
    10:00 +14°C° 0 mm 1 m/s 683 mmHg 56%
    11:00 +14°C° 0 mm 1 m/s 683 mmHg 57%
    12:00 +14°C° 0 mm 1 m/s 683 mmHg 57%
    13:00 +15°C° 0 mm 1 m/s 683 mmHg 55%
    14:00 +16°C° 0 mm 1 m/s 683 mmHg 52%
    15:00 +16°C° 0 mm 1 m/s 683 mmHg 49%
    16:00 +16°C° 0 mm 1 m/s 683 mmHg 51%
    17:00 +16°C° 0 mm 1 m/s 682 mmHg 54%
    18:00 +15°C° 0 mm 2 m/s 682 mmHg 56%
    19:00 +13°C° 0 mm 1 m/s 682 mmHg 67%
    20:00 +11°C° 0 mm 1 m/s 682 mmHg 78%
    21:00 +8°C° 0 mm 1 m/s 681 mmHg 88%
    22:00 +8°C° 0 mm 1 m/s 681 mmHg 89%
    23:00 +7°C° 0 mm 1 m/s 681 mmHg 90%

    11 Junho, Quinta-feira

    Tempo Temperatura Precipitação Vento Pressão Humidade
    00:00 +7°C° 0 mm 1 m/s 681 mmHg 91%
    01:00 +7°C° 0 mm 1 m/s 681 mmHg 92%
    02:00 +7°C° 0 mm 1 m/s 681 mmHg 93%
    03:00 +7°C° 0 mm 1 m/s 681 mmHg 94%
    04:00 +8°C° 0 mm 1 m/s 681 mmHg 91%
    05:00 +9°C° 0 mm 1 m/s 681 mmHg 88%
    06:00 +9°C° 0 mm 2 m/s 681 mmHg 84%
    07:00 +9°C° 0.1 mm 2 m/s 681 mmHg 85%
    08:00 +10°C° 0.1 mm 2 m/s 681 mmHg 86%
    09:00 +10°C° 0.1 mm 3 m/s 681 mmHg 87%
    10:00 +11°C° 0.1 mm 3 m/s 681 mmHg 82%
    11:00 +12°C° 0.1 mm 4 m/s 681 mmHg 77%
    12:00 +12°C° 0.1 mm 4 m/s 681 mmHg 72%
    13:00 +12°C° 0.4 mm 4 m/s 681 mmHg 77%
    14:00 +12°C° 0.4 mm 3 m/s 681 mmHg 82%
    15:00 +11°C° 0.4 mm 3 m/s 680 mmHg 86%
    16:00 +12°C° 0 mm 3 m/s 680 mmHg 83%
    17:00 +12°C° 0 mm 3 m/s 680 mmHg 81%
    18:00 +13°C° 0 mm 3 m/s 680 mmHg 78%
    19:00 +13°C° 0.1 mm 2 m/s 680 mmHg 83%
    20:00 +12°C° 0.1 mm 2 m/s 680 mmHg 88%
    21:00 +11°C° 0.1 mm 1 m/s 680 mmHg 93%
    22:00 +11°C° 0.2 mm 1 m/s 679 mmHg 94%
    23:00 +11°C° 0.2 mm 1 m/s 679 mmHg 95%

    12 Junho, Sexta-feira

    Tempo Temperatura Precipitação Vento Pressão Humidade
    00:00 +11°C° 0.2 mm 1 m/s 679 mmHg 96%
    01:00 +10°C° 0 mm 1 m/s 679 mmHg 96%
    02:00 +10°C° 0 mm 1 m/s 679 mmHg 96%
    03:00 +10°C° 0 mm 1 m/s 679 mmHg 96%
    04:00 +11°C° 0 mm 1 m/s 679 mmHg 95%
    05:00 +12°C° 0 mm 1 m/s 679 mmHg 94%
    06:00 +12°C° 0 mm 1 m/s 679 mmHg 93%
    07:00 +14°C° 0 mm 1 m/s 679 mmHg 88%
    08:00 +15°C° 0 mm 1 m/s 679 mmHg 83%
    09:00 +16°C° 0 mm 2 m/s 680 mmHg 78%
    10:00 +17°C° 0.1 mm 2 m/s 680 mmHg 75%
    11:00 +18°C° 0.1 mm 2 m/s 679 mmHg 73%
    12:00 +18°C° 0.1 mm 2 m/s 679 mmHg 70%
    13:00 +19°C° 0.1 mm 2 m/s 679 mmHg 66%
    14:00 +20°C° 0.1 mm 3 m/s 679 mmHg 61%
    15:00 +21°C° 0.1 mm 3 m/s 679 mmHg 57%
    16:00 +21°C° 0.2 mm 2 m/s 679 mmHg 61%
    17:00 +20°C° 0.2 mm 2 m/s 678 mmHg 65%
    18:00 +21°C° 0.2 mm 1 m/s 678 mmHg 69%
    19:00 +19°C° 0.1 mm 1 m/s 678 mmHg 75%
    20:00 +16°C° 0.1 mm 1 m/s 678 mmHg 82%
    21:00 +13°C° 0.1 mm 0 m/s 677 mmHg 89%
    22:00 +12°C° 0.2 mm 0 m/s 677 mmHg 90%
    23:00 +12°C° 0.2 mm 0 m/s 677 mmHg 90%
    Mostrar mais